Regional Weather Roundup
Issued by NWS

Home | Current Version | Previous Version | Graphics & Text | Print | Product List | Glossary On
Versions: 1 2 3 4 5 6 7 8 9 10 11 12 13 14 15 16 17 18 19 20 21 22 23 24 25 26 27 28 29 30 31 32 33 34 35 36 37 38 39 40 41 42 43 44 45 46 47 48 49 50
000
ASUS44 KMEG 210210
RWRTN
TENNESSEE HOURLY STATE WEATHER ROUNDUP
NATIONAL WEATHER SERVICE MEMPHIS TN
900 PM CDT MON APR 20 2015

TNZ002-004-019-021-049-052-054-088>092-210300-
WEST TENNESSEE

CITY           SKY/WX    TMP DP  RH WIND       PRES   REMARKS
MEMPHIS INTL   PTCLDY    58  40  51 SW5       29.90R
NWS MEMPHIS      N/A     54 N/A N/A MISG        N/A
JACKSON        CLEAR     50  41  71 SW6       29.88R
DYERSBURG      PTCLDY    55  34  44 W8        29.89R
UNION CITY     PTCLDY    55  32  41 W8        29.85R
PARIS            N/A     50  39  66 SW3       29.85R
LEXINGTON      CLEAR     50  43  76 CALM      29.87R
SAVANNAH       CLEAR     48  32  53 CALM      29.90R
$$

TNZ008-025-027-028-033-062-065-066-210300-
NORTH MIDDLE TENNESSEE

CITY           SKY/WX    TMP DP  RH WIND       PRES   REMARKS
NASHVILLE      CLEAR     55  41  59 CALM      29.86R
CLARKSVILLE    MOCLDY    56  39  53 SW5       29.83R
SMYRNA         CLEAR     53  44  71 CALM      29.87R
COOKEVILLE     MOCLDY    50  46  87 SW3       29.85R
CROSSVILLE     CLEAR     50  42  74 W5        29.86R
$$

TNZ061-075-076-078-094-096-097-210300-
SOUTH MIDDLE TENNESSEE

CITY           SKY/WX    TMP DP  RH WIND       PRES   REMARKS
FAYETTEVILLE   CLEAR     54  43  66 W3        29.89R
TULLAHOMA      PTCLDY    52  43  71 W5        29.88R
WINCHESTER     CLEAR     55  43  62 CALM      29.88R
MCMINNVILLE    PTCLDY    52  45  76 SW5       29.87R
COLUMBIA       CLEAR     54  32  43 SW5       29.86R
SHELBYVILLE    PTCLDY    54  46  76 W3        29.88R
$$

TNZ017-018-042-046-047-210300-
NORTHEAST TENNESSEE

CITY           SKY/WX    TMP DP  RH WIND       PRES   REMARKS
TRI CITIES     CLOUDY    61  46  57 W12       29.74R
ELIZABETHTON   CLOUDY    59  45  58 W12       29.75R
$$

TNZ012-013-036-069-073-074-210300-
CENTRAL EAST TENNESSEE

CITY           SKY/WX    TMP DP  RH WIND       PRES   REMARKS
KNOXVILLE      MOCLDY    57  48  72 W12       29.82R
OAK RIDGE      MOCLDY    57  46  66 VRB6      29.84R
GATLINBURG     MOCLDY    57  45  62 W13       29.82R
MORRISTOWN     MOCLDY    55  50  82 NW8       29.82R
$$

TNZ083-085-099-210300-
SOUTHEAST TENNESSEE

CITY           SKY/WX    TMP DP  RH WIND       PRES   REMARKS
CHATTANOOGA    PTCLDY    61  46  57 W10       29.86R
$$

SKY/WX REPORTED AS FAIR MEANS FEW OR NO CLOUDS BELOW
12 THOUSAND FEET.




USA.gov is the U.S. government's official web portal to all federal, state and local government web resources and services.